TimeCDT,TemperatureF,Dew PointF,Humidity,Sea Level PressureIn,VisibilityMPH,Wind Direction,Wind SpeedMPH,Gust SpeedMPH,PrecipitationIn,Events,Conditions,WindDirDegrees,DateUTC
12:53 AM,46.9,37.9,71,30.02,10.0,NW,32.2,41.4,N/A,,Overcast,320,2012-10-04 05:53:00
1:35 AM,42.8,35.6,76,30.07,10.0,WNW,28.8,41.4,N/A,,Overcast,300,2012-10-04 06:35:00
1:53 AM,42.1,34.0,73,30.08,10.0,NW,28.8,38.0,N/A,,Overcast,310,2012-10-04 06:53:00
2:01 AM,42.8,33.8,70,30.09,10.0,WNW,34.5,47.2,N/A,,Overcast,300,2012-10-04 07:01:00
2:53 AM,41.0,32.0,70,30.09,10.0,NW,19.6,40.3,N/A,,Mostly Cloudy,320,2012-10-04 07:53:00
3:24 AM,41.0,33.8,76,30.11,10.0,NW,23.0,31.1,N/A,,Overcast,310,2012-10-04 08:24:00
3:53 AM,42.1,34.0,73,30.12,10.0,NW,28.8,40.3,N/A,,Overcast,310,2012-10-04 08:53:00
4:53 AM,41.0,32.0,70,30.13,10.0,NW,29.9,40.3,N/A,,Mostly Cloudy,310,2012-10-04 09:53:00
5:02 AM,41.0,32.0,70,30.13,10.0,NW,28.8,38.0,N/A,,Scattered Clouds,310,2012-10-04 10:02:00
5:23 AM,42.8,33.8,70,30.15,10.0,NW,24.2,36.8,N/A,,Mostly Cloudy,310,2012-10-04 10:23:00
5:53 AM,39.9,32.0,73,30.17,10.0,NW,23.0,36.8,N/A,,Scattered Clouds,310,2012-10-04 10:53:00
6:40 AM,41.0,32.0,70,30.18,10.0,NW,25.3,32.2,N/A,,Mostly Cloudy,320,2012-10-04 11:40:00
6:53 AM,42.1,32.0,67,30.20,10.0,NW,26.5,36.8,N/A,,Overcast,310,2012-10-04 11:53:00
7:53 AM,42.1,30.9,65,30.24,10.0,NW,24.2,31.1,N/A,,Overcast,320,2012-10-04 12:53:00
8:53 AM,42.1,30.9,65,30.26,10.0,NW,21.9,31.1,N/A,,Overcast,320,2012-10-04 13:53:00
9:53 AM,43.0,30.0,60,30.28,10.0,NNW,24.2,34.5,N/A,,Overcast,330,2012-10-04 14:53:00
10:17 AM,44.6,28.4,53,30.27,10.0,NW,27.6,32.2,N/A,,Overcast,320,2012-10-04 15:17:00
10:53 AM,46.0,28.9,51,30.29,10.0,NNW,25.3,36.8,N/A,,Overcast,340,2012-10-04 15:53:00
11:53 AM,46.0,28.0,50,30.31,10.0,NW,27.6,36.8,N/A,,Overcast,320,2012-10-04 16:53:00
12:53 PM,48.9,28.0,44,30.32,10.0,NW,25.3,33.4,N/A,,Overcast,320,2012-10-04 17:53:00
1:53 PM,48.0,30.0,50,30.32,10.0,NW,24.2,32.2,N/A,,Overcast,320,2012-10-04 18:53:00
2:53 PM,50.0,28.9,44,30.31,10.0,NNW,19.6,29.9,N/A,,Mostly Cloudy,340,2012-10-04 19:53:00
3:53 PM,50.0,28.0,43,30.31,10.0,NW,21.9,-,N/A,,Overcast,310,2012-10-04 20:53:00
4:53 PM,48.9,27.0,43,30.32,10.0,NNW,16.1,-,N/A,,Overcast,330,2012-10-04 21:53:00
5:53 PM,48.0,26.1,42,30.32,10.0,NNW,17.3,-,N/A,,Scattered Clouds,330,2012-10-04 22:53:00
6:53 PM,46.0,27.0,47,30.33,10.0,NNW,13.8,-,N/A,,Partly Cloudy,330,2012-10-04 23:53:00
7:53 PM,37.9,25.0,60,30.35,10.0,NW,6.9,-,N/A,,Scattered Clouds,310,2012-10-05 00:53:00
8:53 PM,42.1,27.0,55,30.36,10.0,WNW,5.8,-,N/A,,Overcast,290,2012-10-05 01:53:00
9:53 PM,42.1,26.1,53,30.36,10.0,NW,10.4,-,N/A,,Overcast,320,2012-10-05 02:53:00
10:53 PM,37.9,26.1,62,30.37,10.0,WNW,8.1,-,N/A,,Partly Cloudy,300,2012-10-05 03:53:00
11:53 PM,37.0,26.1,65,30.36,10.0,WNW,6.9,-,N/A,,Mostly Cloudy,290,2012-10-05 04:53:00